This is the latest recevied weather packets stored in our database for station/object KO4DYK. If no packets are shown the sender has not sent any weather packets the latest 10 day(s).
| Time | Temp. | Humidity | Pressure | Rain* | Wind** | Luminosity | Snow |
|---|---|---|---|---|---|---|---|
| 1777635558 | 7.78° C | 99% | 1020.6 hPa | 0 mm | - | 20 W/m² | - |
| 1777635254 | 7.22° C | 99% | 1020.5 hPa | 0 mm | - | 19 W/m² | - |
| 1777634951 | 7.22° C | 99% | 1020.5 hPa | 0 mm | - | 16 W/m² | - |
| 1777634648 | 7.22° C | 99% | 1020.5 hPa | 0 mm | - | 12 W/m² | - |
| 1777634346 | 7.22° C | 99% | 1020.5 hPa | 0 mm | - | 7 W/m² | - |
| 1777634041 | 7.22° C | 99% | 1020.1 hPa | 0 mm | - | 4 W/m² | - |
| 1777633738 | 7.22° C | 99% | 1020.1 hPa | 0 mm | - | 3 W/m² | - |
| 1777633437 | 7.22° C | 99% | 1020.1 hPa | 0 mm | - | 1 W/m² | - |
| 1777633134 | 7.22° C | 99% | 1020 hPa | 0 mm | - | 0 W/m² | - |
| 1777632830 | 7.22° C | 99% | 1019.9 hPa | 0 mm | - | 0 W/m² | - |
| 1777632526 | 7.22° C | 99% | 1019.8 hPa | 0 mm | - | 0 W/m² | - |
| 1777632224 | 7.22° C | 99% | 1019.6 hPa | 0 mm | - | 0 W/m² | - |
| 1777631920 | 7.22° C | 99% | 1019.6 hPa | 0 mm | - | 0 W/m² | - |
| 1777631619 | 7.22° C | 99% | 1019.6 hPa | 0 mm | - | 0 W/m² | - |
| 1777631316 | 7.22° C | 99% | 1019.6 hPa | 0 mm | - | 0 W/m² | - |
| 1777631013 | 7.22° C | 99% | 1019.6 hPa | 0 mm | - | 0 W/m² | - |
| 1777630708 | 7.22° C | 99% | 1019.5 hPa | 0 mm | - | 0 W/m² | - |
| 1777630406 | 7.22° C | 99% | 1019.5 hPa | 0 mm | - | 0 W/m² | - |
| 1777630103 | 7.22° C | 99% | 1019.4 hPa | 0 mm | - | 0 W/m² | - |
| 1777629800 | 7.22° C | 99% | 1019.5 hPa | 0 mm | - | 0 W/m² | - |
| 1777629498 | 7.22° C | 99% | 1019.7 hPa | 0 mm | - | 0 W/m² | - |
| 1777629194 | 7.22° C | 99% | 1019.7 hPa | 0 mm | - | 0 W/m² | - |
| 1777628890 | 7.22° C | 99% | 1019.7 hPa | 0 mm | - | 0 W/m² | - |
| 1777628588 | 7.78° C | 99% | 1019.8 hPa | 0 mm | - | 0 W/m² | - |
| 1777628283 | 7.78° C | 99% | 1019.8 hPa | 0 mm | - | 0 W/m² | - |
* Rain latest hour (hover to see other rain measurements)
** Current wind speed in m/s (hover to see current wind gust speed)